This is the latest recevied weather packets stored in our database for station/object PY5KT-13. If no packets are shown the sender has not sent any weather packets the latest 10 day(s).
| Time | Temp. | Humidity | Pressure | Rain* | Wind** | Luminosity | Snow |
|---|---|---|---|---|---|---|---|
| 1777647377 | 23.89° C | 57% | 1022.3 hPa | 0 mm | - | 455 W/m² | - |
| 1777647075 | 23.89° C | 58% | 1022.3 hPa | 0 mm | - | 507 W/m² | - |
| 1777646773 | 23.89° C | 58% | 1022.4 hPa | 0 mm | - | 458 W/m² | - |
| 1777646471 | 23.33° C | 58% | 1022.4 hPa | 0 mm | - | 498 W/m² | - |
| 1777646169 | 23.33° C | 59% | 1022.4 hPa | 0 mm | - | 491 W/m² | - |
| 1777645867 | 22.78° C | 60% | 1022.4 hPa | 0 mm | - | 465 W/m² | - |
| 1777645565 | 22.22° C | 60% | 1022.5 hPa | 0 mm | - | 414 W/m² | - |
| 1777645264 | 22.22° C | 60% | 1022.6 hPa | 0 mm | - | 428 W/m² | - |
| 1777644962 | 21.67° C | 62% | 1022.7 hPa | 0 mm | - | 380 W/m² | - |
| 1777644660 | 22.22° C | 61% | 1022.7 hPa | 0 mm | - | 332 W/m² | - |
| 1777644359 | 22.22° C | 61% | 1022.8 hPa | 0 mm | - | 386 W/m² | - |
| 1777644058 | 21.67° C | 64% | 1023 hPa | 0 mm | - | 433 W/m² | - |
| 1777643756 | 21.67° C | 65% | 1023.1 hPa | 0 mm | - | 370 W/m² | - |
| 1777643455 | 21.11° C | 65% | 1023.1 hPa | 0 mm | - | 362 W/m² | - |
| 1777643153 | 22.22° C | 64% | 1023.2 hPa | 0 mm | - | 441 W/m² | - |
| 1777642851 | 21.67° C | 65% | 1023.3 hPa | 0 mm | - | 465 W/m² | - |
| 1777642549 | 22.22° C | 64% | 1023.4 hPa | 0 mm | - | 457 W/m² | - |
| 1777642247 | 21.67° C | 67% | 1023.5 hPa | 0 mm | - | 421 W/m² | - |
| 1777641944 | 21.11° C | 70% | 1023.5 hPa | 0 mm | - | 504 W/m² | - |
| 1777641642 | 21.67° C | 70% | 1023.5 hPa | 0 mm | - | 453 W/m² | - |
| 1777641340 | 20° C | 74% | 1023.5 hPa | 0 mm | - | 447 W/m² | - |
| 1777641038 | 20.56° C | 72% | 1023.6 hPa | 0 mm | - | 419 W/m² | - |
| 1777640736 | 20° C | 73% | 1023.6 hPa | 0 mm | - | 394 W/m² | - |
| 1777640434 | 20° C | 72% | 1023.7 hPa | 0 mm | - | 376 W/m² | - |
| 1777640132 | 18.89° C | 74% | 1023.7 hPa | 0 mm | - | 367 W/m² | - |
* Rain latest hour (hover to see other rain measurements)
** Current wind speed in m/s (hover to see current wind gust speed)